Satellite: AUBIESAT Catalog number: 37854 Epoch time: 12039.86078466 Element set: 0099 Inclination: 101.7140 deg RA of node: 021.3802 deg Eccentricity: 0.0252366 Arg of perigee: 358.7387 deg Mean anomaly: 001.3155 deg Mean motion: 14.79048434 rev/day Decay rate: 7.091e-05 rev/day^2 Epoch rev: 01526 Checksum: 298
Satellite: HRBE Catalog number: 37855 Epoch time: 12040.87886036 Element set: 94 Inclination: 101.7178 deg RA of node: 022.8554 deg Eccentricity: 0.0252957 Arg of perigee: 355.9272 deg Mean anomaly: 003.9864 deg Mean motion: 14.78975612 rev/day Decay rate: 6.322e-05 rev/day^2 Epoch rev: 1541 Checksum: 320
Satellite: RS-39 Catalog number: 38051 Epoch time: 12040.77677083 Element set: 48 Inclination: 051.6502 deg RA of node: 050.6986 deg Eccentricity: 0.0011282 Arg of perigee: 303.9512 deg Mean anomaly: 045.7028 deg Mean motion: 15.22167607 rev/day Decay rate: 7.271e-05 rev/day^2 Epoch rev: 239 Checksum: 286
/EX
participants (1)
-
Ray Hoad